Weatherford, OK

8:37 PM CST on November 21, 2017 (GMT -0600)
Weatherford

Weather History for KOJA - December, 2012

Change the Weather History Date:

Monday, December 10, 2012

  Actual Average (KJWG) Record (KJWG)
Temperature  
Mean Temperature 27 °F -  
Max Temperature 37 °F 50 °F 71 °F (1975)
Min Temperature 17 °F 28 °F 5 °F (2013)
Degree Days  
Heating Degree Days 38    
Moisture  
Dew Point 8 °F    
Average Humidity 43    
Maximum Humidity 58    
Minimum Humidity 28    
Precipitation  
Precipitation 0.00 in - - ()
Sea Level Pressure  
Sea Level Pressure 30.12 in    
Wind  
Wind Speed 12 mph (WNW)    
Max Wind Speed 21 mph    
Max Gust Speed 30 mph    
Visibility 10 miles    
Events      
Averages and records for this station are not official NWS values.
T = Trace of Precipitation, MM = Missing Value Source: NWS Daily Summary

Daily Weather History Graph

Daily Weather History Graph

Search for Another Location

Airport or City:

Trip Planner

Search our weather history database for the weather conditions in past years. The results will help you decide how hot, cold, wet, or windy it might be!

Date:

Astronomy

Dec. 10, 2012 Rise Set
Actual Time 7:33 AM CST 5:21 PM CST
Civil Twilight 7:05 AM CST 5:50 PM CST
Nautical Twilight 6:33 AM CST 6:22 PM CST
Astronomical Twilight 6:02 AM CST 6:53 PM CST
Moon 4:22 AM CST (12/10) 3:09 PM CST (12/10)
Length of Visible Light 10h 44m
Length of Day
9h 48m
Waning Crescent, 10% of the Moon is Illuminated
Dec 10
Waning Crescent
Dec 13
New
Dec 19
First Quarter
Dec 28
Full
Jan 4
Last Quarter

Hourly Weather History & Observations

Time (CST) Temp. Windchill Dew Point Humidity Pressure Visibility Wind Dir Wind Speed Gust Speed Precip Events Conditions
12:15 AM 30.2 °F 17.8 °F 10.4 °F 44% 30.17 in 10.0 mi North 19.6 mph 26.5 mph N/A   Overcast
12:35 AM 30.2 °F 19.3 °F 10.4 °F 44% 30.17 in 10.0 mi North 15.0 mph 25.3 mph N/A   Overcast
12:55 AM 30.2 °F 18.5 °F 10.4 °F 44% 30.16 in 10.0 mi North 17.3 mph 26.5 mph N/A   Overcast
1:15 AM 28.4 °F 16.2 °F 10.4 °F 47% 30.17 in 10.0 mi North 17.3 mph 23.0 mph N/A   Overcast
1:35 AM 28.4 °F 15.1 °F 10.4 °F 47% 30.18 in 10.0 mi NNW 20.7 mph 29.9 mph N/A   Overcast
1:55 AM 28.4 °F 15.4 °F 10.4 °F 47% 30.17 in 10.0 mi North 19.6 mph 26.5 mph N/A   Overcast
2:15 AM 26.6 °F 13.8 °F 10.4 °F 51% 30.17 in 10.0 mi North 17.3 mph 24.2 mph N/A   Scattered Clouds
2:35 AM 26.6 °F 15.7 °F 10.4 °F 51% 30.17 in 10.0 mi NNW 12.7 mph - N/A   Clear
2:55 AM 24.8 °F 11.9 °F 10.4 °F 54% 30.17 in 10.0 mi North 16.1 mph 20.7 mph N/A   Clear
3:15 AM 24.8 °F 14.0 °F 10.4 °F 54% 30.17 in 10.0 mi NNW 11.5 mph - N/A   Clear
3:35 AM 24.8 °F 12.4 °F 10.4 °F 54% 30.17 in 10.0 mi NW 15.0 mph - N/A   Scattered Clouds
3:55 AM 23.0 °F 9.6 °F 8.6 °F 54% 30.16 in 10.0 mi NNW 16.1 mph - N/A   Clear
4:15 AM 23.0 °F 10.6 °F 8.6 °F 54% 30.17 in 10.0 mi NNW 13.8 mph 17.3 mph N/A   Clear
4:35 AM 23.0 °F 10.6 °F 8.6 °F 54% 30.15 in 10.0 mi NNW 13.8 mph 17.3 mph N/A   Clear
4:55 AM 21.2 °F 11.7 °F 8.6 °F 58% 30.17 in 10.0 mi NNW 8.1 mph - N/A   Clear
5:15 AM 21.2 °F 9.5 °F 8.6 °F 58% 30.17 in 10.0 mi NNW 11.5 mph - N/A   Clear
5:35 AM 21.2 °F 10.1 °F 8.6 °F 58% 30.17 in 10.0 mi NW 10.4 mph - N/A   Clear
5:55 AM 19.4 °F 6.0 °F 6.8 °F 58% 30.17 in 10.0 mi NNW 13.8 mph - N/A   Clear
6:15 AM 19.4 °F 5.5 °F 5.0 °F 54% 30.17 in 10.0 mi NNW 15.0 mph - N/A   Clear
6:35 AM 19.4 °F 6.0 °F 5.0 °F 54% 30.17 in 10.0 mi NNW 13.8 mph 19.6 mph N/A   Clear
6:55 AM 19.4 °F 7.2 °F 5.0 °F 54% 30.17 in 10.0 mi NNW 11.5 mph - N/A   Clear
7:15 AM 19.4 °F 8.6 °F 5.0 °F 54% 30.18 in 10.0 mi NNW 9.2 mph - N/A   Clear
7:35 AM 17.6 °F 5.7 °F 3.2 °F 53% 30.17 in 10.0 mi NNW 10.4 mph - N/A   Clear
7:55 AM 17.6 °F 6.4 °F 3.2 °F 53% 30.18 in 10.0 mi NNW 9.2 mph - N/A   Clear
8:35 AM 17.6 °F 7.3 °F 3.2 °F 53% 30.19 in 10.0 mi North 8.1 mph - N/A   Clear
8:55 AM 19.4 °F 7.2 °F 3.2 °F 49% 30.19 in 10.0 mi NNW 11.5 mph - N/A   Clear
9:15 AM 19.4 °F 9.5 °F 3.2 °F 49% 30.20 in 10.0 mi NNW 8.1 mph - N/A   Clear
9:35 AM 21.2 °F 9.5 °F 3.2 °F 46% 30.20 in 10.0 mi North 11.5 mph - N/A   Clear
9:55 AM 23.0 °F 11.7 °F 3.2 °F 43% 30.19 in 10.0 mi NNW 11.5 mph - N/A   Clear
10:15 AM 23.0 °F 12.4 °F 3.2 °F 43% 30.20 in 10.0 mi NNW 10.4 mph - N/A   Clear
10:35 AM 24.8 °F 15.3 °F 3.2 °F 40% 30.19 in 10.0 mi NNW 9.2 mph - N/A   Clear
10:55 AM 26.6 °F 18.2 °F 3.2 °F 37% 30.19 in 10.0 mi NW 8.1 mph - N/A   Clear
11:15 AM 28.4 °F 19.7 °F 3.2 °F 34% 30.18 in 10.0 mi North 9.2 mph - N/A   Clear
11:35 AM 28.4 °F 21.2 °F 3.2 °F 34% 30.17 in 10.0 mi NW 6.9 mph - N/A   Clear
11:55 AM 30.2 °F 23.4 °F 5.0 °F 34% 30.17 in 10.0 mi NNW 6.9 mph - N/A   Clear
12:15 PM 32.0 °F 25.6 °F 5.0 °F 32% 30.16 in 10.0 mi NNW 6.9 mph - N/A   Clear
12:35 PM 32.0 °F 28.7 °F 5.0 °F 32% 30.15 in 10.0 mi WNW 3.5 mph - N/A   Clear
12:55 PM 32.0 °F 27.5 °F 5.0 °F 32% 30.13 in 10.0 mi NW 4.6 mph - N/A   Clear
1:15 PM 33.8 °F - 5.0 °F 30% 30.11 in 10.0 mi Calm Calm - N/A   Clear
1:35 PM 33.8 °F 28.6 °F 5.0 °F 30% 30.10 in 10.0 mi West 5.8 mph - N/A   Clear
1:55 PM 35.6 °F 29.9 °F 5.0 °F 28% 30.08 in 10.0 mi West 6.9 mph - N/A   Clear
2:15 PM 35.6 °F 31.7 °F 5.0 °F 28% 30.08 in 10.0 mi NNW 4.6 mph - N/A   Clear
2:35 PM 35.6 °F 30.7 °F 6.8 °F 30% 30.07 in 10.0 mi NW 5.8 mph - N/A   Clear
2:55 PM 37.4 °F - 8.6 °F 30% 30.06 in 10.0 mi Calm Calm - N/A   Clear
3:15 PM 37.4 °F 34.9 °F 8.6 °F 30% 30.06 in 10.0 mi West 3.5 mph - N/A   Clear
3:35 PM 37.4 °F 34.9 °F 8.6 °F 30% 30.06 in 10.0 mi NW 3.5 mph - N/A   Clear
3:55 PM 37.4 °F 33.8 °F 8.6 °F 30% 30.04 in 10.0 mi WSW 4.6 mph - N/A   Clear
4:15 PM 37.4 °F 34.9 °F 8.6 °F 30% 30.04 in 10.0 mi WSW 3.5 mph - N/A   Clear
4:35 PM 37.4 °F 33.8 °F 8.6 °F 30% 30.04 in 10.0 mi West 4.6 mph - N/A   Clear
4:55 PM 37.4 °F 33.8 °F 8.6 °F 30% 30.04 in 10.0 mi WSW 4.6 mph - N/A   Clear
5:15 PM 35.6 °F 32.8 °F 8.6 °F 33% 30.05 in 10.0 mi WSW 3.5 mph - N/A   Clear
5:35 PM 35.6 °F 31.7 °F 8.6 °F 33% 30.05 in 10.0 mi WSW 4.6 mph - N/A   Clear
5:55 PM 33.8 °F - 8.6 °F 35% 30.04 in 10.0 mi Calm Calm - N/A   Clear
6:15 PM 33.8 °F 29.6 °F 8.6 °F 35% 30.04 in 10.0 mi South 4.6 mph - N/A   Clear
6:35 PM 32.0 °F 27.5 °F 8.6 °F 38% 30.03 in 10.0 mi South 4.6 mph - N/A   Clear
6:55 PM 32.0 °F 27.5 °F 8.6 °F 38% 30.03 in 10.0 mi South 4.6 mph - N/A   Clear
7:15 PM 30.2 °F 25.4 °F 8.6 °F 40% 30.03 in 10.0 mi South 4.6 mph - N/A   Clear
7:35 PM 30.2 °F 24.3 °F 8.6 °F 40% 30.03 in 10.0 mi South 5.8 mph - N/A   Clear
7:55 PM 28.4 °F 23.3 °F 8.6 °F 43% 30.04 in 10.0 mi South 4.6 mph - N/A   Clear
8:15 PM 30.2 °F 26.7 °F 8.6 °F 40% 30.04 in 10.0 mi South 3.5 mph - N/A   Clear
8:35 PM 28.4 °F 24.6 °F 8.6 °F 43% 30.05 in 10.0 mi SSW 3.5 mph - N/A   Clear
8:55 PM 28.4 °F 23.3 °F 10.4 °F 47% 30.06 in 10.0 mi SSW 4.6 mph - N/A   Clear
9:15 PM 30.2 °F 24.3 °F 10.4 °F 44% 30.06 in 10.0 mi SSW 5.8 mph - N/A   Clear
9:35 PM 28.4 °F 21.2 °F 10.4 °F 47% 30.05 in 10.0 mi SSW 6.9 mph - N/A   Clear
9:55 PM 28.4 °F 20.4 °F 10.4 °F 47% 30.05 in 10.0 mi SSW 8.1 mph - N/A   Clear
10:15 PM 28.4 °F 21.2 °F 12.2 °F 51% 30.06 in 10.0 mi SSW 6.9 mph - N/A   Clear
10:35 PM 28.4 °F 22.2 °F 12.2 °F 51% 30.06 in 10.0 mi SSW 5.8 mph - N/A   Clear
10:55 PM 28.4 °F 21.2 °F 12.2 °F 51% 30.05 in 10.0 mi SSW 6.9 mph - N/A   Clear
11:15 PM 28.4 °F 22.2 °F 12.2 °F 51% 30.04 in 10.0 mi SSW 5.8 mph - N/A   Clear
11:35 PM 28.4 °F 21.2 °F 12.2 °F 51% 30.05 in 10.0 mi SSW 6.9 mph - N/A   Clear
11:55 PM 28.4 °F 20.4 °F 12.2 °F 51% 30.06 in 10.0 mi SSW 8.1 mph - N/A   Clear